Nimes, France

5:30 PM CEST on September 24, 2017 (GMT +0200)
Garons Navy

Weather History for LFTW - June, 2013

Change the Weather History Date:

Saturday, June 15, 2013

  Actual Average Record
Temperature  
Mean Temperature 74 °F -  
Max Temperature 87 °F 82 °F 98 °F (2017)
Min Temperature 62 °F 63 °F 55 °F (2008)
Cooling Degree Days 10    
Growing Degree Days 24 (Base 50)    
Moisture  
Dew Point 61 °F    
Average Humidity 68    
Maximum Humidity 94    
Minimum Humidity 37    
Precipitation  
Precipitation 0.00 in - - ()
Sea Level Pressure  
Sea Level Pressure 30.02 in    
Wind  
Wind Speed 3 mph ()    
Max Wind Speed 12 mph    
Max Gust Speed -    
Visibility 5.6 miles    
Events      
Averages and records for this station are not official NWS values.
T = Trace of Precipitation, MM = Missing Value Source: Averaged Metar Reports

Daily Weather History Graph

Daily Weather History Graph

Search for Another Location

Airport or City:

Trip Planner

Search our weather history database for the weather conditions in past years. The results will help you decide how hot, cold, wet, or windy it might be!

Date:

Astronomy

Jun. 15, 2013 Rise Set
Actual Time 5:59 AM CEST 9:26 PM CEST
Civil Twilight 5:23 AM CEST 10:02 PM CEST
Nautical Twilight 4:36 AM CEST 10:49 PM CEST
Astronomical Twilight 3:37 AM CEST 11:49 PM CEST
Moon 12:30 PM CEST (6/15) 12:43 AM CEST (6/15)
Length of Visible Light 16h 38m
Length of Day
15h 26m
Waxing Crescent, 37% of the Moon is Illuminated
Jun 15
Waxing Crescent
Jun 16
First Quarter
Jun 23
Full
Jun 30
Last Quarter
Jul 8
New

Hourly Weather History & Observations

Time (CEST) Temp. Heat Index Dew Point Humidity Pressure Visibility Wind Dir Wind Speed Gust Speed Precip Events Conditions
12:00 AM 64.4 °F - 59.0 °F 83% 30.04 in 6.2 mi South 4.6 mph - N/A   Unknown
12:30 AM 66.2 °F - 59.0 °F 78% 30.04 in 6.2 mi Variable 2.3 mph - N/A   Unknown
1:00 AM 64.4 °F - 59.0 °F 83% 30.04 in 6.2 mi SSW 1.2 mph - N/A   Unknown
1:30 AM 64.4 °F - 59.0 °F 83% 30.04 in 6.2 mi Calm Calm - N/A   Unknown
2:00 AM 64.4 °F - 60.8 °F 88% 30.04 in 6.2 mi Calm Calm - N/A   Unknown
2:30 AM 64.4 °F - 59.0 °F 83% 30.04 in 6.2 mi Calm Calm - N/A   Unknown
3:00 AM 62.6 °F - 59.0 °F 88% 30.04 in 6.2 mi SSE 3.5 mph - N/A   Unknown
3:30 AM 62.6 °F - 59.0 °F 88% 30.04 in 6.2 mi ESE 2.3 mph - N/A   Unknown
4:00 AM 62.6 °F - 60.8 °F 94% 30.04 in 6.2 mi Variable 2.3 mph - N/A   Unknown
4:30 AM 62.6 °F - 60.8 °F 94% 30.04 in 6.2 mi Variable 2.3 mph - N/A   Unknown
5:00 AM 62.6 °F - 59.0 °F 88% 30.01 in 6.2 mi East 3.5 mph - N/A   Unknown
5:30 AM 62.6 °F - 60.8 °F 94% 30.01 in 5.6 mi Calm Calm - N/A   Unknown
6:00 AM 62.6 °F - 60.8 °F 94% 30.01 in 4.3 mi SSE 1.2 mph - N/A   Unknown
6:30 AM 62.6 °F - 60.8 °F 94% 30.01 in 4.3 mi Calm Calm - N/A   Unknown
7:00 AM 64.4 °F - 62.6 °F 94% 30.01 in 5.6 mi Calm Calm - N/A   Unknown
7:30 AM 66.2 °F - 62.6 °F 88% 30.04 in 6.2 mi Variable 2.3 mph - N/A   Unknown
8:00 AM 66.2 °F - 62.6 °F 88% 30.04 in 6.2 mi Variable 2.3 mph - N/A   Unknown
8:30 AM 68.0 °F - 62.6 °F 83% 30.04 in 6.2 mi Variable 2.3 mph - N/A   Unknown
9:00 AM 71.6 °F - 60.8 °F 69% 30.04 in 6.2 mi Variable 2.3 mph - N/A   Unknown
9:30 AM 73.4 °F - 60.8 °F 65% 30.04 in 6.2 mi Variable 2.3 mph - N/A   Unknown
10:00 AM 75.2 °F - 59.0 °F 57% 30.04 in 6.2 mi Variable 2.3 mph - N/A   Unknown
10:30 AM 75.2 °F - 59.0 °F 57% 30.04 in 6.2 mi Variable 3.5 mph - N/A   Unknown
11:00 AM 77.0 °F - 59.0 °F 54% 30.04 in 6.2 mi NW 3.5 mph - N/A   Unknown
11:30 AM 78.8 °F - 59.0 °F 51% 30.04 in 6.2 mi Variable 3.5 mph - N/A   Unknown
12:00 PM 80.6 °F 81.1 °F 59.0 °F 48% 30.04 in 5.6 mi NW 5.8 mph - N/A   Unknown
12:30 PM 80.6 °F 81.1 °F 59.0 °F 48% 30.04 in 1.5 mi Variable 3.5 mph - N/A   Mist
1:00 PM 82.4 °F 82.0 °F 57.2 °F 42% 30.04 in 1.2 mi Variable 2.3 mph - N/A   Mist
1:30 PM 84.2 °F 83.5 °F 57.2 °F 40% 30.01 in - East 3.5 mph - N/A   Mist
2:00 PM 84.2 °F 83.5 °F 57.2 °F 40% 30.01 in 6.2 mi Variable 2.3 mph - N/A   Unknown
2:30 PM 86.0 °F 85.4 °F 59.0 °F 40% 30.01 in - Variable 3.5 mph - N/A   Mist
3:00 PM 86.0 °F 84.9 °F 57.2 °F 37% 30.01 in 3.7 mi South 4.6 mph - N/A   Unknown
3:30 PM 87.8 °F 87.1 °F 59.0 °F 38% 29.98 in 6.2 mi WNW 5.8 mph - N/A   Unknown
4:00 PM 84.2 °F 85.0 °F 62.6 °F 48% 29.98 in 1.3 mi SW 8.1 mph - N/A   Mist
4:30 PM 84.2 °F 85.0 °F 62.6 °F 48% 29.98 in - SSW 11.5 mph - N/A   Mist
5:00 PM 84.2 °F 85.0 °F 62.6 °F 48% 29.98 in 4.3 mi SSW 11.5 mph - N/A   Unknown
5:30 PM 82.4 °F 83.4 °F 62.6 °F 51% 29.98 in 6.2 mi SSW 11.5 mph - N/A   Unknown
6:00 PM 82.4 °F 83.4 °F 62.6 °F 51% 29.98 in 6.2 mi SSW 11.5 mph - N/A   Unknown
6:30 PM 82.4 °F 83.4 °F 62.6 °F 51% 29.98 in 5.6 mi SW 10.4 mph - N/A   Unknown
7:00 PM 80.6 °F 81.8 °F 62.6 °F 54% 29.98 in 6.2 mi SSW 9.2 mph - N/A   Unknown
7:30 PM 80.6 °F 81.5 °F 60.8 °F 51% 29.98 in 6.2 mi SSW 9.2 mph - N/A   Unknown
8:00 PM 78.8 °F - 60.8 °F 54% 29.98 in 6.2 mi SSW 9.2 mph - N/A   Unknown
8:30 PM 77.0 °F - 62.6 °F 61% 30.01 in 6.2 mi SW 6.9 mph - N/A   Unknown
9:00 PM 75.2 °F - 62.6 °F 65% 30.01 in 6.2 mi SSW 8.1 mph - N/A   Unknown
9:30 PM 73.4 °F - 62.6 °F 69% 30.01 in 6.2 mi SSW 3.5 mph - N/A   Unknown
10:00 PM 71.6 °F - 62.6 °F 73% 30.01 in 6.2 mi SSW 5.8 mph - N/A   Unknown
10:30 PM 69.8 °F - 64.4 °F 83% 30.01 in 6.2 mi SSE 6.9 mph - N/A   Unknown
11:00 PM 69.8 °F - 64.4 °F 83% 30.01 in 6.2 mi South 5.8 mph - N/A   Unknown
11:30 PM 68.0 °F - 64.4 °F 88% 30.04 in 6.2 mi SE 6.9 mph - N/A   Unknown